OSCAR 7 (AO-7) 1 07530U 74089B 25349.92667221 -.00000025 00000+0 13427-3 0 9998 2 07530 101.9965 356.2278 0012381 120.6513 298.9417 12.53694255337559 PHASE 3B (AO-10) 1 14129U 83058B 25349.79859870 .00000067 00000+0 00000+0 0 9998 2 14129 26.0495 250.6586 6064792 64.4851 345.0346 2.05872632291719 UOSAT 2 (UO-11) 1 14781U 84021B 25349.88222263 .00000942 00000+0 10294-3 0 9995 2 14781 97.7811 312.8619 0009218 73.5382 286.6848 14.90153368229829 LUSAT (LO-19) 1 20442U 90005G 25349.96516256 .00000149 00000+0 70208-4 0 9993 2 20442 98.8959 1.6223 0012022 28.3111 331.8724 14.34045960876138 EYESAT A (AO-27) 1 22825U 93061C 25349.93556531 .00000119 00000+0 62614-4 0 9991 2 22825 98.7143 52.2104 0007312 278.9955 81.0400 14.30877840680790 ITAMSAT (IO-26) 1 22826U 93061D 25349.61969577 .00000136 00000+0 68454-4 0 9992 2 22826 98.7093 51.7933 0007835 261.4040 98.6255 14.31298707681053 RADIO ROSTO (RS-15) 1 23439U 94085A 25349.97301823 -.00000177 00000+0 -38285-2 0 9997 2 23439 64.8158 239.5217 0149823 37.8976 323.2382 11.27582283275243 JAS-2 (FO-29) 1 24278U 96046B 25349.87834795 -.00000040 00000+0 -31758-5 0 9996 2 24278 98.5461 218.5926 0349282 211.8203 146.1405 13.53262908448372 TECHSAT 1B (GO-32) 1 25397U 98043D 25349.93806474 .00000092 00000+0 59974-4 0 9992 2 25397 98.9922 333.2240 0001981 52.2495 307.8863 14.24377985425242 ISS (ZARYA) 1 25544U 98067A 25349.89461712 .00006813 00000+0 12896-3 0 9997 2 25544 51.6305 126.8563 0003169 254.4589 105.6050 15.49611341543340 PCSAT (NO-44) 1 26931U 01043C 25349.73976317 .00000193 00000+0 10292-3 0 9994 2 26931 67.0515 358.7202 0007423 269.7794 90.2457 14.31856461264181 SAUDISAT 1C (SO-50) 1 27607U 02058C 25349.36902203 .00001772 00000+0 22930-3 0 9990 2 27607 64.5542 337.4723 0072348 296.1198 63.2476 14.82402452237203 CUTE-1 (CO-55) 1 27844U 03031E 25349.96226894 .00000370 00000+0 17937-3 0 9990 2 27844 98.6763 355.8237 0009604 4.2888 355.8371 14.24182015165594 CUBESAT XI-IV (CO-57) 1 27848U 03031J 25349.29774373 .00000342 00000+0 16942-3 0 9994 2 27848 98.6792 355.0277 0009873 23.7561 336.4071 14.23489145165212 MOZHAETS 4 (RS-22) 1 27939U 03042A 25349.98776069 .00001179 00000+0 19173-3 0 9995 2 27939 98.3363 164.2738 0012154 125.8066 25.5411 14.72981161188573 CUBESAT XI-V 1 28895U 05043F 25349.90861328 .00001468 00000+0 24229-3 0 9994 2 28895 98.2719 137.0398 0015317 68.9442 291.3400 14.71913245 74783 CUTE-1.7+APD II (CO-65) 1 32785U 08021C 25349.95851917 .00005052 00000+0 34073-3 0 9995 2 32785 97.8078 323.0925 0007880 297.5844 62.4582 15.07084199957576 SEEDS II (CO-66) 1 32791U 08021J 25349.92123127 .00013520 00000+0 53845-3 0 9991 2 32791 97.7443 335.1764 0001650 190.0708 170.0496 15.25365799959286 YUBILEINY (RS-30) 1 32953U 08025A 25349.92972235 .00000038 00000+0 20449-3 0 9991 2 32953 82.5016 109.4386 0018909 354.0783 6.0070 12.43172157796923 KKS-1 (KISEKI) 1 33499U 09002H 25349.91444305 .00001684 00000+0 21683-3 0 9993 2 33499 98.1179 264.5568 0008320 154.5985 205.5638 14.82444801909037 SWISSCUBE 1 35932U 09051B 25349.71385257 .00001083 00000+0 22598-3 0 9998 2 35932 98.4144 249.3476 0008065 66.5041 293.7007 14.61967247862348 BEESAT-1 1 35933U 09051C 25349.15280889 .00001158 00000+0 24459-3 0 9993 2 35933 98.4076 248.7834 0006553 79.9269 280.2670 14.61283477862303 ITUPSAT1 1 35935U 09051E 25349.25853238 .00001101 00000+0 23938-3 0 9999 2 35935 98.4165 248.2673 0008746 88.3693 271.8508 14.60038836861896 XIWANG-1 (HOPE-1) 1 36122U 09072B 25349.93362047 -.00000027 00000+0 44174-4 0 9992 2 36122 100.3771 301.9132 0007028 295.3892 64.6493 13.16432155768890 O/OREOS (USA 219) 1 37224U 10062C 25349.84337762 .00002354 00000+0 23370-3 0 9991 2 37224 71.9694 135.3419 0013241 50.2421 309.9913 14.92694172 89272 JUGNU 1 37839U 11058B 25349.22719528 .00000493 00000+0 11768-3 0 9995 2 37839 19.9625 345.9915 0018546 204.0654 250.3910 14.13697880732969 SRMSAT 1 37841U 11058D 25349.65056470 .00000425 00000+0 86862-4 0 9998 2 37841 19.9717 90.3334 0011830 345.5596 152.0986 14.11512425731852 STRAND-1 1 39090U 13009E 25349.45477897 .00000381 00000+0 14296-3 0 9994 2 39090 98.3821 169.2767 0009661 63.5823 296.6354 14.37007308670675 ZACUBE-1 (TSHEPISOSAT) 1 39417U 13066B 25349.86230540 .00002707 00000+0 22379-3 0 9992 2 39417 97.8057 306.4121 0042005 137.0608 223.3906 14.99113298653247 GOMX-1 1 39430U 13066Q 25349.83141459 .00002589 00000+0 40026-3 0 9991 2 39430 97.6592 196.7635 0129530 306.6195 52.3154 14.68603150642990 CUBEBUG-2 (LO-74) 1 39440U 13066AA 25349.82419142 .00002854 00000+0 27855-3 0 9998 2 39440 97.8707 293.4917 0057978 275.4306 84.0300 14.92002896649632 FUNCUBE-1 (AO-73) 1 39444U 13066AE 25349.84429784 .00005995 00000+0 40796-3 0 9995 2 39444 97.8065 313.1607 0040738 105.5645 255.0084 15.06011134652032 UWE-3 1 39446U 13066AG 25349.83312671 .00003033 00000+0 27528-3 0 9991 2 39446 97.8481 300.1852 0049676 208.8483 150.9990 14.95133576650164 UNISAT-6 1 40012U 14033C 25349.90944060 .00002877 00000+0 32295-3 0 9990 2 40012 97.7613 141.2936 0045361 313.5272 46.2179 14.86824120618910 DUCHIFAT-1 1 40021U 14033M 25349.37333443 .00027817 00000+0 67858-3 0 9992 2 40021 98.0791 21.4634 0007293 26.1775 333.9837 15.40826787627258 QB50P1 1 40025U 14033R 25349.92335186 .00007188 00000+0 39361-3 0 9990 2 40025 98.0967 343.7208 0010809 125.0403 235.1842 15.14518168625257 LILACSAT-2 1 40908U 15049K 25349.97502844 .00011966 00000+0 25696-3 0 9995 2 40908 97.4915 15.4571 0007537 184.9914 175.1261 15.44825126567402 FOX-1A (AO-85) 1 40967U 15058D 25349.76242712 .00003388 00000+0 31303-3 0 9993 2 40967 64.7746 128.4725 0134536 128.8375 232.4837 14.89687306 86237 CAS-2T & KS-1Q 1 41847U 16066G 25349.81011121 .00001081 00000+0 16241-3 0 9997 2 41847 98.4036 62.5205 0343028 325.8414 32.1122 14.44138016478320 RADFXSAT (FOX-1B) 1 43017U 17073E 25349.89422384 .00008444 00000+0 40054-3 0 9991 2 43017 97.4954 216.0187 0159191 239.4840 119.0592 15.08934652437718 DIWATA-2B 1 43678U 18084H 25349.98869186 .00002918 00000+0 24314-3 0 9993 2 43678 98.1023 173.5817 0007654 37.8949 322.2810 14.99455809388750 ES'HAIL 2 1 43700U 18090A 25349.91963343 .00000000 00000+0 00000+0 0 9991 2 43700 0.0249 3.6175 0000929 278.9053 159.1571 1.00269692 25839 FOX-1CLIFF (AO-95) 1 43770U 18099N 25349.88308413 .00008589 00000+0 37926-3 0 9995 2 43770 97.4681 46.1426 0008149 273.3620 86.6684 15.21958003385295 ITASAT 1 43786U 18099AE 25349.60198143 .00005079 00000+0 26655-3 0 9997 2 43786 97.4327 39.8538 0011778 272.6366 87.3518 15.16117797385063 JY1SAT (JO-97) 1 43803U 18099AX 25349.89573010 .00012271 00000+0 46602-3 0 9994 2 43803 97.4427 47.7019 0006133 189.6057 170.5066 15.26948569385590 UWE-4 1 43880U 18111E 25349.82866565 .00019605 00000+0 58663-3 0 9995 2 43880 97.5858 266.4385 0007191 262.7672 97.2753 15.34564319382558 TIANYAN 01 1 44881U 19093C 25349.99974288 .00000352 00000+0 46218-4 0 9990 2 44881 97.7759 61.5583 0013128 335.3670 24.6917 14.86109680324204 RS-44 & BREEZE-KM R/B 1 44909U 19096E 25349.82861214 .00000010 00000+0 -84922-6 0 9998 2 44909 82.5214 101.5563 0217151 212.8492 145.8956 12.79746173278895 SALSAT 1 46495U 20068K 25349.94064692 .00006472 00000+0 25165-3 0 9997 2 46495 97.8781 337.3859 0009148 216.2619 143.7999 15.26381318287374 XW-3 (CAS-9) 1 50466U 21131B 25349.98280097 .00000484 00000+0 16409-3 0 9993 2 50466 98.5050 78.3875 0003094 294.2430 65.8435 14.41117034208724 GREENCUBE (IO-117) 1 53109U 22080E 25348.44384664 -.00000003 00000+0 00000+0 0 9993 2 53109 70.1577 2.4881 0009040 327.2145 32.7953 6.42583234 80191 STRATOSAT-TK 1 (RS52S) 1 57167U 23091B 25349.77225599 .00253295 00000+0 14124-2 0 9999 2 57167 97.5202 62.4858 0005078 311.9330 48.1503 15.78709229137356 UMKA 1 (RS40S) 1 57172U 23091G 25349.90587152 .00005548 00000+0 27384-3 0 9995 2 57172 97.5345 44.3569 0014483 43.1849 317.0518 15.18214507136174 CUBESX-HSE 3 (RS42S) 1 57178U 23091N 25349.95912471 .00009581 00000+0 37604-3 0 9999 2 57178 97.5378 48.6728 0012613 25.9776 334.2093 15.25868607136432 MONITOR-3 (RS58S) 1 57180U 23091Q 25349.96473285 .00008188 00000+0 34543-3 0 9999 2 57180 97.5372 47.3665 0013513 30.0775 330.1235 15.23481240136357 MONITOR-4 (RS57S) 1 57182U 23091S 25349.95403928 .00008002 00000+0 33694-3 0 9998 2 57182 97.5366 47.3168 0013537 30.6499 329.5526 15.23551093136354 MONITOR-2 (RS39S) 1 57184U 23091U 25349.92085554 .00004312 00000+0 22276-3 0 9992 2 57184 97.5370 44.3735 0012585 35.9550 324.2528 15.16767720136156 SVYATOBOR 1 (RS60S) 1 57187U 23091X 25349.97533509 .00007676 00000+0 33042-3 0 9997 2 57187 97.5378 47.9973 0010691 23.7288 336.4439 15.22847982136397 VIZARD-METEO (RS38S) 1 57189U 23091Z 25349.97732831 .00011961 00000+0 42079-3 0 9990 2 57189 97.5368 51.4226 0008474 12.2968 347.8477 15.29465301136625 NANOZOND 1 (RS49S) 1 57190U 23091AA 25349.96750126 .00053290 00000+0 83135-3 0 9997 2 57190 97.5287 59.9946 0004335 347.2009 12.9133 15.53666020137200 POLYTECH-UNIVERSE 3 (R*) 1 57191U 23091AB 25349.97051718 .00004674 00000+0 23955-3 0 9996 2 57191 97.5342 43.9361 0017401 50.0463 310.2295 15.16935324136159 UTMN 2 (RS27S) 1 57203U 23091AP 25349.95185414 .00009461 00000+0 36141-3 0 9999 2 57203 97.5369 50.0691 0009318 16.1322 344.0211 15.26807851136531 KUZGTU 1 (RS47S) 1 57217U 23091AV 25349.94453081 .00008697 00000+0 35112-3 0 9998 2 57217 97.5351 47.9361 0012815 28.6744 331.5195 15.24952729136409 SONATE-2 1 59112U 24043Q 25349.89098955 .00021779 00000+0 45865-3 0 9993 2 59112 97.5321 126.2596 0009129 150.6689 209.5073 15.45248813 99469 MESAT1 1 60209U 24125G 25349.50633947 .00024493 00000+0 49377-3 0 9995 2 60209 97.2524 199.8801 0014343 167.4470 192.7140 15.46431890 81035 OOV-CUBE (TUBSAT-30) 1 60240U 24128F 25349.87656643 .00002333 00000+0 18867-3 0 9990 2 60240 61.9938 144.2641 0058406 94.8844 265.8918 15.01629371 78573 COLIBRI-S (RS67S) 1 61746U 24199M 25349.87368392 .00015108 00000+0 38747-3 0 9994 2 61746 97.3263 217.8065 0008585 217.9936 142.0705 15.39406853109135 HORS 3 (RS81S) 1 61753U 24199U 25349.79729005 .00020827 00000+0 47732-3 0 9993 2 61753 97.3234 218.3521 0006565 222.8717 137.2019 15.42762339109178 HORS 4 (RS82S) 1 61754U 24199V 25349.92323329 .00024455 00000+0 52729-3 0 9991 2 61754 97.3216 218.9134 0006656 220.4635 139.6120 15.44547054109221 HORIZON (RS59S) 1 61757U 24199Y 25349.90121707 .00046044 00000+0 70917-3 0 9995 2 61757 97.3220 221.0332 0005908 194.8586 165.2495 15.54043747109357 ARCTICSAT 1 (RS74S) 1 61762U 24199AD 25349.90043785 .00039758 00000+0 64805-3 0 9993 2 61762 97.3228 220.8785 0006185 191.3265 168.7850 15.52499025109348 SIT-2086 1 61764U 24199AF 25349.80057804 .00025322 00000+0 57768-3 0 9993 2 61764 97.3232 219.1093 0006500 212.5621 147.5226 15.42862063106064 MORDOVIA-IOT (RS50S) 1 61765U 24199AG 25349.89922339 .00133111 00000+0 10754-2 0 9996 2 61765 97.3127 223.6527 0004387 155.7066 204.4404 15.70423105106389 RUZAEVKA 390 (RS44S) 1 61766U 24199AH 25349.88941986 .00077428 00000+0 86981-3 0 9999 2 61766 97.3176 222.6113 0004444 172.7927 187.3396 15.62361866106311 HYPERVIEW 1G (RS66S) 1 61772U 24199AP 25349.91025847 .00032853 00000+0 62558-3 0 9996 2 61772 97.3213 219.3851 0008036 222.2673 137.7959 15.48109322106104 ALTAIR (RS65S) 1 61779U 24199AW 25349.87362135 .00007919 00000+0 25148-3 0 9991 2 61779 97.3266 215.6347 0012378 241.4800 118.5197 15.32849169108990 ASRTU-1 (AO-123) 1 61781U 24199AY 25349.93848551 .00008538 00000+0 27797-3 0 9992 2 61781 97.3254 215.3533 0012886 242.6910 117.3021 15.32021424105832 TUSUR GO (RS78S) 1 61782U 24199AZ 25349.90319491 .00049098 00000+0 77388-3 0 9993 2 61782 97.3178 220.1219 0006793 216.6429 143.4360 15.53383774106153 SAMSAT-IONOSPHERE (RS7*) 1 61784U 24199BB 25349.86108043 .00024089 00000+0 54419-3 0 9992 2 61784 97.3229 218.1260 0009883 230.0798 129.9582 15.43135559109161 RTU MIREA 1 (RS51S) 1 61785U 24199BC 25349.87581100 .00025572 00000+0 55532-3 0 9998 2 61785 97.3223 218.4003 0009489 226.9528 133.0926 15.44302901106030 HADES-R 1 62690U 25009CK 25349.78262861 .00119717 00000+0 14669-2 0 9995 2 62690 97.3870 72.5224 0001088 260.3917 99.7217 15.59953125 51259 TEVEL2-4 1 63213U 25052D 25348.94399458 .00011069 00000+0 41809-3 0 9993 2 63213 97.4107 240.7572 0004939 58.7302 301.4420 15.27162247 41929 TEVEL2-5 1 63214U 25052E 25349.14614184 .00011264 00000+0 42626-3 0 9998 2 63214 97.4100 240.9453 0004953 58.7678 301.4046 15.27093140 41957 TEVEL2-6 1 63215U 25052F 25349.67774483 .00011597 00000+0 43923-3 0 9996 2 63215 97.4108 241.4616 0005091 57.2977 302.8753 15.27058739 42038 TEVEL2-1 1 63217U 25052H 25349.65551052 .00012413 00000+0 47458-3 0 9996 2 63217 97.4085 241.2482 0005227 65.3703 294.8080 15.26727928 42025 TEVEL2-3 1 63218U 25052J 25349.13034184 .00011534 00000+0 44107-3 0 9993 2 63218 97.4083 240.7324 0005293 68.0022 292.1779 15.26737008 41946 TEVEL2-2 1 63219U 25052K 25349.13194210 .00010908 00000+0 41760-3 0 9997 2 63219 97.4084 240.7285 0005290 68.1420 292.0381 15.26714963 41947 TEVEL2-9 1 63237U 25052AD 25349.95021886 .00011893 00000+0 47525-3 0 9994 2 63237 97.4149 241.2426 0009319 73.1433 287.0827 15.25234460 42036 TEVEL2-7 1 63238U 25052AE 25349.63638816 .00011120 00000+0 44675-3 0 9993 2 63238 97.4147 240.9055 0009394 74.1686 286.0587 15.25072639 41986 TEVEL2-8 1 63239U 25052AF 25349.64207462 .00011290 00000+0 45386-3 0 9992 2 63239 97.4149 240.8956 0009376 74.3480 285.8791 15.25046946 41988 HADES-ICM 1 63492U 25052BN 25348.97147613 .00038798 00000+0 97714-3 0 9993 2 63492 97.4083 242.5092 0011745 69.2947 290.9556 15.39733774 42041 INNOSAT 16 (RS92S7) 1 64878U 25155C 25349.90559997 .00003499 00000+0 15248-3 0 9994 2 64878 97.4330 313.2439 0012975 107.5933 252.6722 15.22783933 52756 GEOSCAN 6 (RS92S6) 1 64879U 25155D 25349.88938454 .00008239 00000+0 32661-3 0 9996 2 64879 97.4332 313.5892 0010666 101.9297 258.3138 15.25597732 52770 GEOSCAN 1 (RS92S1) 1 64880U 25155E 25349.94415105 .00009002 00000+0 35368-3 0 9994 2 64880 97.4333 313.6745 0010607 102.1496 258.0931 15.25867487 52786 239ALFEROV (RS61S) 1 64881U 25155F 25349.96932736 .00010364 00000+0 39608-3 0 9995 2 64881 97.4343 313.8141 0010424 101.7814 258.4595 15.26753559 52792 GEOSCAN 2 (RS92S2) 1 64890U 25155Q 25349.90806829 .00009297 00000+0 36167-3 0 9992 2 64890 97.4331 313.7110 0009967 91.8103 268.4277 15.26196944 52780 GEOSCAN 5 (RS92S5) 1 64891U 25155R 25349.93295039 .00011680 00000+0 44127-3 0 9995 2 64891 97.4333 313.8406 0009071 106.1645 254.0593 15.27112817 52790 GEOSCAN 4 (RS92S4) 1 64892U 25155S 25349.92989812 .00011412 00000+0 43035-3 0 9994 2 64892 97.4337 313.8482 0009080 106.7614 253.4622 15.27180573 52791 GEOSCAN 3 (RS92S3) 1 64893U 25155T 25349.96370182 .00012993 00000+0 47842-3 0 9998 2 64893 97.4333 313.9495 0008929 107.9979 252.2234 15.27937072 52803 INNOSAT 3 (RS92S0) 1 64894U 25155U 25349.93627807 .00021675 00000+0 73601-3 0 9994 2 64894 97.4315 314.1270 0008834 108.1996 252.0207 15.30475674 52813